Weather History for Edinburgh Airport, United Kingdom

Change the Weather History Date:

Sunday, January 12, 2014

  Actual Average Record
Temperature  
Mean Temperature 32 °F -  
Max Temperature 41 °F 43 °F 53 °F (1997)
Min Temperature 24 °F 33 °F 21 °F (2008)
Degree Days  
Heating Degree Days 32    
Moisture  
Dew Point 30 °F    
Average Humidity 85    
Maximum Humidity 100    
Minimum Humidity 53    
Precipitation  
Precipitation 0.00 in 0.07 in - ()
Sea Level Pressure  
Sea Level Pressure 29.83 in    
Wind  
Wind Speed 4 mph ()    
Max Wind Speed 13 mph    
Max Gust Speed -    
Visibility 6.2 miles    
Events Fog , Rain    
Averages and records for this station are not official NWS values.
T = Trace of Precipitation, MM = Missing Value Source: Averaged Metar Reports

Daily Weather History Graph

Daily Weather History Graph

Search for Another Location

Airport:

Trip Planner

Search our weather history database for the weather conditions in past years. The results will help you decide how hot, cold, wet, or windy it might be!

Date:

Astronomy

Jan. 12, 2014 Rise Set
Actual Time 8:37 AM GMT 4:06 PM GMT
Civil Twilight 7:52 AM GMT 4:51 PM GMT
Nautical Twilight 7:04 AM GMT 5:38 PM GMT
Astronomical Twilight 6:20 AM GMT 6:23 PM GMT
Moon 1:28 PM GMT (1/12) 5:17 AM GMT (1/12)
Length of Visible Light 8h 58m
Length of Day
7h 28m
Waxing Gibbous, 88% of the Moon is Illuminated
Jan 12
Waxing Gibbous
Jan 16
Full
Jan 24
Last Quarter
Jan 30
New
Feb 6
First Quarter

Hourly Weather History & Observations

Time (GMT) Temp. Windchill Dew Point Humidity Pressure Visibility Wind Dir Wind Speed Gust Speed Precip Events Conditions
12:20 AM 33.8 °F 29.6 °F 32.0 °F 93% 30.12 in - West 4.6 mph - N/A   Clear
12:50 AM 33.8 °F 30.8 °F 32.0 °F 93% 30.12 in - Variable 3.5 mph - N/A   Clear
1:20 AM 28.4 °F - 26.6 °F 93% 30.09 in - Variable 2.3 mph - N/A   Clear
1:50 AM 28.4 °F - 26.6 °F 93% 30.09 in - Variable 2.3 mph - N/A   Clear
2:20 AM 26.6 °F - 26.6 °F 100% 30.09 in 6.2 mi Calm Calm - N/A Fog Shallow Fog
2:50 AM 26.6 °F - 24.8 °F 93% 30.09 in 6.2 mi Calm Calm - N/A Fog Shallow Fog
3:20 AM 26.6 °F - 26.6 °F 100% 30.09 in - Calm Calm - N/A   Clear
3:50 AM 28.4 °F - 26.6 °F 93% 30.09 in - Calm Calm - N/A   Clear
4:20 AM 26.6 °F - 26.6 °F 100% 30.09 in - Calm Calm - N/A   Clear
4:50 AM 26.6 °F - 24.8 °F 93% 30.06 in - Variable 2.3 mph - N/A   Clear
5:20 AM 26.6 °F - 26.6 °F 100% 30.06 in 6.2 mi Variable 2.3 mph - N/A Fog Shallow Fog
5:50 AM 24.8 °F 20.5 °F 24.8 °F 100% 30.06 in 6.2 mi ENE 3.5 mph - N/A Fog Shallow Fog
6:20 AM 28.4 °F 24.6 °F 28.4 °F 100% 30.04 in 6.2 mi Variable 3.5 mph - N/A Fog Shallow Fog
6:50 AM 26.6 °F - 26.6 °F 100% 30.04 in 6.2 mi Calm Calm - N/A   Partly Cloudy
7:20 AM 28.4 °F - 28.4 °F 100% 30.01 in 6.2 mi Variable 2.3 mph - N/A   Partly Cloudy
7:50 AM 28.4 °F - 28.4 °F 100% 30.01 in 6.2 mi Variable 2.3 mph - N/A   Partly Cloudy
8:20 AM 28.4 °F 21.2 °F 28.4 °F 100% 29.98 in - NE 6.9 mph - N/A   Clear
8:50 AM 35.6 °F 29.9 °F 30.2 °F 81% 29.98 in - ESE 6.9 mph - N/A   Clear
9:20 AM 33.8 °F 28.6 °F 30.2 °F 87% 29.98 in - NNE 5.8 mph - N/A   Clear
9:50 AM 33.8 °F 29.6 °F 30.2 °F 87% 29.95 in - East 4.6 mph - N/A   Clear
10:20 AM 33.8 °F 30.8 °F 30.2 °F 87% 29.95 in - Variable 3.5 mph - N/A   Clear
10:50 AM 33.8 °F 27.7 °F 30.2 °F 87% 29.95 in - ESE 6.9 mph - N/A   Clear
11:20 AM 37.4 °F 32.1 °F 28.4 °F 70% 29.92 in - East 6.9 mph - N/A   Clear
11:50 AM 37.4 °F 29.8 °F 28.4 °F 70% 29.86 in - ESE 11.5 mph - N/A   Clear
12:20 PM 39.2 °F 37.0 °F 28.4 °F 65% 29.86 in - Variable 3.5 mph - N/A   Clear
12:50 PM 39.2 °F - 28.4 °F 65% 29.86 in - Variable 2.3 mph - N/A   Clear
1:20 PM 41.0 °F 38.0 °F 24.8 °F 53% 29.83 in - Variable 4.6 mph - N/A   Clear
1:50 PM 41.0 °F 37.1 °F 26.6 °F 57% 29.80 in - SE 5.8 mph - N/A   Clear
2:20 PM 39.2 °F 33.6 °F 28.4 °F 65% 29.77 in - SE 8.1 mph - N/A   Clear
2:50 PM 39.2 °F 33.0 °F 28.4 °F 65% 29.77 in - SE 9.2 mph - N/A   Clear
3:20 PM 35.6 °F 30.7 °F 28.4 °F 75% 29.74 in - NE 5.8 mph - N/A   Clear
3:50 PM 35.6 °F 29.2 °F 28.4 °F 75% 29.71 in - East 8.1 mph - N/A   Clear
4:20 PM 35.6 °F 30.7 °F 28.4 °F 75% 29.71 in - ENE 5.8 mph - N/A   Clear
4:50 PM 35.6 °F 29.9 °F 28.4 °F 75% 29.68 in - ENE 6.9 mph - N/A   Clear
5:20 PM 37.4 °F 29.8 °F 28.4 °F 70% 29.68 in - ESE 11.5 mph - N/A   Clear
5:50 PM 35.6 °F 27.1 °F 28.4 °F 75% 29.65 in 6.2 mi East 12.7 mph - N/A   Partly Cloudy
6:20 PM 35.6 °F 29.2 °F 30.2 °F 81% 29.62 in 6.2 mi ENE 8.1 mph - N/A   Partly Cloudy
6:50 PM 35.6 °F 29.2 °F 32.0 °F 87% 29.62 in 6.2 mi ENE 8.1 mph - N/A   Partly Cloudy
7:20 PM 37.4 °F 31.4 °F 32.0 °F 81% 29.59 in 6.2 mi East 8.1 mph - N/A Rain Light Rain
7:50 PM 37.4 °F 32.8 °F 33.8 °F 87% 29.56 in 6.2 mi ENE 5.8 mph - N/A Rain Light Rain
8:20 PM 37.4 °F 30.8 °F 33.8 °F 87% 29.56 in 6.2 mi East 9.2 mph - N/A Rain Light Rain
8:50 PM 37.4 °F 32.1 °F 33.8 °F 87% 29.53 in 6.2 mi East 6.9 mph - N/A   Scattered Clouds
9:20 PM 37.4 °F 32.8 °F 33.8 °F 87% 29.50 in 6.2 mi NE 5.8 mph - N/A   Partly Cloudy
9:50 PM 39.2 °F 33.0 °F 35.6 °F 87% 29.50 in 6.2 mi ESE 9.2 mph - N/A   Partly Cloudy
10:20 PM 39.2 °F 35.9 °F 37.4 °F 93% 29.47 in 6.2 mi NE 4.6 mph - N/A Rain Light Rain
10:50 PM 39.2 °F 35.0 °F 37.4 °F 93% 29.47 in 6.2 mi NE 5.8 mph - N/A   Mostly Cloudy
11:20 PM 39.2 °F 35.0 °F 37.4 °F 93% 29.44 in 6.2 mi NE 5.8 mph - N/A Rain Light Rain Showers
11:50 PM 39.2 °F - 37.4 °F 93% 29.44 in 6.2 mi ENE 2.3 mph - N/A   Overcast